Regional Weather Roundup
Issued by NWS Northern Indiana

Home | Current Version | Previous Version | Text Only | Print | Product List | Glossary On
Versions: 1 2 3 4 5 6 7 8 9 10 11 12 13 14 15 16 17 18 19 20 21 22 23 24 25 26 27 28 29 30 31 32 33 34 35 36 37 38 39 40 41 42 43 44 45 46 47 48 49 50
000
ASUS43 KIWX 261110
RWRIWX

KIWX WEATHER ROUNDUP
NATIONAL WEATHER SERVICE NORTHERN INDIANA
700 AM EDT THU MAY 26 2016

NOTE: "FAIR" INDICATES FEW OR NO CLOUDS BELOW 12,000 FEET WITH NO
SIGNIFICANT WEATHER AND/OR OBSTRUCTIONS TO VISIBILITY.

* THESE STATIONS ARE NOT UNDER NWS QUALITY CONTROL. THEY ALSO MAY NOT
  REPORT WEATHER SUCH AS PRECIPITATION OR FOG.

INZ001>027-261200-
NORTHERN INDIANA

CITY           SKY/WX    TMP DP  RH WIND       PRES   REMARKS
GARY*          MOCLDY    68  68 100 S9        29.94R
VALPARAISO     MOCLDY    66  64  93 S8        29.96R FOG
MICHIGAN CITY* PTCLDY    64  64 100 S7        29.95R FOG
LAPORTE*       CLOUDY    68  68 100 S6        29.96R FOG
KNOX*          MOCLDY    66  61  82 S9        29.95S
SOUTH BEND     MOCLDY    67  64  90 S7        29.96S
ELKHART*       CLOUDY    70  68  94 S7        29.96
GOSHEN         CLOUDY    69  63  81 S10       29.97S
MONTICELLO*    CLEAR     67  63  85 S7        29.97R
LOGANSPORT*    CLOUDY    68  63  83 S10       29.99R
ROCHESTER*     CLOUDY    70  66  88 S8        29.98R
WARSAW*        CLOUDY    68  63  83 S5        29.98S
ANGOLA*        CLOUDY    66  64  94 S3        29.98S
FORT WAYNE     MOCLDY    66  62  87 S7        30.00S
HUNTINGTON*    PTCLDY   N/A N/A N/A S3        29.99S
PERU/GRISSOM   CLOUDY    69  66  90 S12       29.98S
MARION*        CLOUDY    67  62  85 S9        30.01S HAZE

$$
INZ028>050-261200-
CENTRAL INDIANA

CITY           SKY/WX    TMP DP  RH WIND       PRES   REMARKS
LAFAYETTE      MOCLDY    67  64  90 S7        29.98R
KOKOMO*        CLOUDY    68  61  77 S10       29.99S
MUNCIE*        PTCLDY    68  62  81 SW7       30.02R
INDIANAPOLIS   CLOUDY    68  64  87 S8        30.00F

$$
MIZ043>046-050>051-056>058-064>065-071>073-077>080-261200-
SOUTHWEST LOWER MICHIGAN

CITY           SKY/WX    TMP DP  RH WIND       PRES   REMARKS
BATTLE CREEK   CLEAR     63  61  93 S6        29.96F
BENTON HARBOR  CLEAR     66  63  90 S6        29.94R
COLDWATER*     PTCLDY    65  63  93 SE6       29.97F
HILLSDALE*     PTCLDY    64  61  92 CALM      29.99S
HOLLAND        PTCLDY    66  63  90 S10       29.93R
GRAND RAPIDS   CLOUDY    66  62  87 S12       29.92F
KALAMAZOO      CLEAR     65  62  90 S8        29.95S
STURGIS*       PTCLDY    64  63  94 S6        29.96F
THREE RIVERS*  FAIR      66  64  91 S3        29.96S

$$
OHZ001>008-015>018-024>025-261200-
NORTHWEST OHIO

CITY           SKY/WX    TMP DP  RH WIND       PRES   REMARKS
WAUSEON*         N/A     68  68 100 S8        29.99S
DEFIANCE       CLOUDY    69  62  78 S6        30.00R
FINDLAY        CLOUDY    68  60  75 S9        30.01S
TOLEDO EXPRESS CLOUDY    67  62  84 SW5       29.99R
TOLEDO METCALF CLOUDY    68  61  78 SW7       30.00R
LIMA           CLOUDY    67  61  81 S8        30.02F

$$
AND FOR LAKE MICHIGAN COASTAL AND OPEN LAKE BUOY OBSERVATIONS

STATION/POSITION TEMP    WIND        PRES    VSBY  WAVE
                 AIR SEA DIR/SP/G                  HT/PER
                 (F)     (DEG/KT/KT) (MB)    (MI)  (FT/S)
CALUMET HARBOR    68     170/  7/ 10 1011.7F
MICHIGAN CITY     68     160/ 13/ 17   N/A
BURNS HARBOR      67     190/ 10/ 18 1014.2R
SAINT JOSEPH      66     150/  3/  6 1014.6R
SOUTH LAKE BUOY   54 49  160/ 14/ 16 1011.9R         1/ 3
4 MI NW BRIDGMAN  63 60  160/  8/ 10   N/A           1
MICHIGAN CITY     63 58  200/  8/ 10   N/A           1

$$
&&




USA.gov is the U.S. government's official web portal to all federal, state and local government web resources and services.